Cambridge Niab, United Kingdom

4:10 AM GMT on January 18, 2017 (GMT +0000)
Cambridge

Weather History for EGSC - February, 2014

Change the Weather History Date:

Wednesday, February 26, 2014

  Actual Average Record
Temperature  
Mean Temperature 44 °F -  
Max Temperature 51 °F 48 °F 53 °F (1999)
Min Temperature 37 °F 38 °F 26 °F (2004)
Degree Days  
Heating Degree Days 21    
Moisture  
Dew Point 37 °F    
Average Humidity 76    
Maximum Humidity 100    
Minimum Humidity 58    
Precipitation  
Precipitation 0.00 in - - ()
Sea Level Pressure  
Sea Level Pressure 29.91 in    
Wind  
Wind Speed 10 mph ()    
Max Wind Speed 20 mph    
Max Gust Speed -    
Visibility 6.2 miles    
Events      
Averages and records for this station are not official NWS values.
T = Trace of Precipitation, MM = Missing Value Source: Averaged Metar Reports

Daily Weather History Graph

Daily Weather History Graph

Search for Another Location

Airport or City:

Trip Planner

Search our weather history database for the weather conditions in past years. The results will help you decide how hot, cold, wet, or windy it might be!

Date:

Astronomy

Feb. 26, 2014 Rise Set
Actual Time 6:52 AM GMT 5:33 PM GMT
Civil Twilight 6:18 AM GMT 6:07 PM GMT
Nautical Twilight 5:38 AM GMT 6:46 PM GMT
Astronomical Twilight 4:59 AM GMT 7:25 PM GMT
Moon 4:44 AM GMT (2/26) 2:13 PM GMT (2/26)
Length of Visible Light 11h 49m
Length of Day
10h 40m
Waning Crescent, 12% of the Moon is Illuminated
Feb 26
Waning Crescent
Mar 1
New
Mar 8
First Quarter
Mar 16
Full
Mar 24
Last Quarter

Hourly Weather History & Observations

Time (GMT) Temp. Windchill Dew Point Humidity Pressure Visibility Wind Dir Wind Speed Gust Speed Precip Events Conditions
6:20 AM 37.4 °F 31.4 °F 35.6 °F 93% 29.80 in - South 8.1 mph - N/A   Clear
6:50 AM 37.4 °F 32.1 °F 35.6 °F 93% 29.80 in - South 6.9 mph - N/A   Clear
7:20 AM 37.4 °F 32.1 °F 35.6 °F 93% 29.83 in - South 6.9 mph - N/A   Clear
7:50 AM 37.4 °F 30.8 °F 37.4 °F 100% 29.83 in - South 9.2 mph - N/A   Clear
8:20 AM 41.0 °F 35.2 °F 37.4 °F 87% 29.86 in - SSW 9.2 mph - N/A   Clear
8:50 AM 42.8 °F 38.0 °F 39.2 °F 87% 29.86 in - SSW 8.1 mph - N/A   Clear
9:20 AM 42.8 °F 35.8 °F 39.2 °F 87% 29.86 in - SW 13.8 mph - N/A   Clear
9:50 AM 44.6 °F 38.8 °F 41.0 °F 87% 29.89 in - SW 11.5 mph - N/A   Clear
10:20 AM 46.4 °F 40.4 °F 41.0 °F 81% 29.89 in 6.2 mi WSW 13.8 mph - N/A   Partly Cloudy
10:50 AM 48.2 °F - 41.0 °F 76% 29.89 in 6.2 mi WSW 16.1 mph - N/A   Partly Cloudy
11:20 AM 48.2 °F - 39.2 °F 71% 29.92 in 6.2 mi SSW 11.5 mph - N/A   Partly Cloudy
11:50 AM 50.0 °F - 41.0 °F 71% 29.92 in 6.2 mi SW 13.8 mph - N/A   Partly Cloudy
12:20 PM 50.0 °F - 39.2 °F 66% 29.92 in 6.2 mi SW 16.1 mph - N/A   Partly Cloudy
12:50 PM 50.0 °F - 39.2 °F 66% 29.92 in 6.2 mi SW 13.8 mph - N/A   Partly Cloudy
1:20 PM 51.8 °F - 37.4 °F 58% 29.92 in - SSW 16.1 mph - N/A   Clear
1:50 PM 51.8 °F - 39.2 °F 62% 29.92 in 6.2 mi SW 17.3 mph - N/A   Scattered Clouds
2:20 PM 51.8 °F - 37.4 °F 58% 29.92 in 6.2 mi SW 19.6 mph - N/A   Partly Cloudy
2:50 PM 51.8 °F - 37.4 °F 58% 29.92 in 6.2 mi SSW 15.0 mph - N/A   Partly Cloudy
3:20 PM 51.8 °F - 37.4 °F 58% 29.92 in 6.2 mi SW 15.0 mph - N/A   Partly Cloudy
3:50 PM 50.0 °F - 37.4 °F 62% 29.92 in 6.2 mi SW 16.1 mph - N/A   Partly Cloudy
4:20 PM 50.0 °F - 37.4 °F 62% 29.92 in 6.2 mi SW 17.3 mph - N/A   Partly Cloudy
4:50 PM 48.2 °F - 35.6 °F 62% 29.95 in 6.2 mi SW 13.8 mph - N/A   Partly Cloudy
5:20 PM 46.4 °F 41.1 °F 35.6 °F 66% 29.95 in 6.2 mi SW 11.5 mph - N/A   Partly Cloudy
5:50 PM 44.6 °F 40.2 °F 35.6 °F 71% 29.95 in 6.2 mi SSW 8.1 mph - N/A   Partly Cloudy
6:20 PM 42.8 °F 38.6 °F 35.6 °F 76% 29.95 in 6.2 mi South 6.9 mph - N/A   Partly Cloudy
6:50 PM 42.8 °F 38.0 °F 35.6 °F 76% 29.98 in - South 8.1 mph - N/A   Clear
7:20 PM 41.0 °F 35.8 °F 35.6 °F 81% 29.98 in - South 8.1 mph - N/A   Clear
7:50 PM 42.8 °F 37.5 °F 35.6 °F 76% 29.95 in 6.2 mi South 9.2 mph - N/A   Partly Cloudy
8:20 PM 42.8 °F 38.0 °F 35.6 °F 76% 29.98 in 6.2 mi South 8.1 mph - N/A   Partly Cloudy
8:50 PM 42.8 °F 37.5 °F 35.6 °F 76% 29.95 in - SSW 9.2 mph - N/A   Clear
9:20 PM 41.0 °F 35.8 °F 35.6 °F 81% 29.95 in - South 8.1 mph - N/A   Clear
9:50 PM 41.0 °F 35.2 °F 37.4 °F 87% 29.95 in - South 9.2 mph - N/A   Clear
10:20 PM 41.0 °F 35.8 °F 37.4 °F 87% 29.95 in - SSE 8.1 mph - N/A   Clear
10:50 PM 41.0 °F 35.2 °F 37.4 °F 87% 29.95 in - South 9.2 mph - N/A   Clear